Location: Unspecified
(0.0000°N, 0.0000°E)
Time: 04:28:14
(UTC+00:00)

STARLINK-35278 - Visible Passes

Search period start: 14 February 2026 00:00
Search period end: 24 February 2026 00:00
Orbit: 474 x 476 km, 53.2° (Epoch: 11 February)

Date Brightness Start Highest point End Pass type
(mag) Time Alt. Az. Time Alt. Az. Time Alt. Az.
19 Feb 4.5 19:23:42 10° SSE 19:24:51 14° SE 19:24:51 14° SE visible
20 Feb 4.4 18:54:20 10° SSE 18:55:55 12° SE 18:56:49 12° ESE visible
20 Feb 5.6 20:30:31 10° WSW 20:30:57 12° WSW 20:30:57 12° WSW visible
21 Feb 4.0 20:00:10 10° WSW 20:03:00 30° WNW 20:03:00 30° WNW visible
22 Feb 3.4 19:29:49 10° SW 19:33:18 41° WNW 19:35:05 24° N visible
23 Feb 2.9 18:59:29 10° SW 19:03:05 55° NW 19:06:40 10° NNE visible
